Weather History for Mount Pleasant, SC

Change the Weather History Date:

Saturday, February 9, 2013

  Actual Average (KCHS) Record (KCHS)
Temperature  
Mean Temperature 50 °F 51 °F  
Max Temperature 62 °F 62 °F 80 °F (1949)
Min Temperature 35 °F 40 °F 19 °F (1947)
Degree Days  
Heating Degree Days 16 15  
Month to date heating degree days 137  
Since 1 July heating degree days 1396  
Cooling Degree Days 0 0  
Month to date cooling degree days 0  
Year to date cooling degree days 2  
Moisture  
Dew Point 35 °F    
Average Humidity 66    
Maximum Humidity 100    
Minimum Humidity 22    
Precipitation  
Precipitation 0.00 in 0.10 in 1.69 in (1948)
Month to date precipitation 0.98  
Year to date precipitation 4.69  
Sea Level Pressure  
Sea Level Pressure 30.24 in    
Wind  
Wind Speed 4 mph (North)    
Max Wind Speed 10 mph    
Max Gust Speed -    
Visibility 10 miles    
Events      
T = Trace of Precipitation, MM = Missing Value Source: NWS Daily Summary

Daily Weather History Graph

Daily Weather History Graph

Search for Another Location

Airport:

Trip Planner

Search our weather history database for the weather conditions in past years. The results will help you decide how hot, cold, wet, or windy it might be!

Date:

Astronomy

Feb. 09, 2013 Rise Set
Actual Time 7:07 AM EST 5:59 PM EST
Civil Twilight 6:42 AM EST 6:24 PM EST
Nautical Twilight 6:13 AM EST 6:54 PM EST
Astronomical Twilight 5:44 AM EST 7:22 PM EST
Moon 6:18 AM EST (2/9) 5:38 PM EST (2/9)
Length of Visible Light 11h 42m
Length of Day
10h 51m
Waning Crescent, 0% of the Moon is Illuminated
Feb 9
Waning Crescent
Feb 10
New
Feb 17
First Quarter
Feb 25
Full
Mar 4
Last Quarter

Hourly Weather History & Observations

Time (EST) Temp. Windchill Dew Point Humidity Pressure Visibility Wind Dir Wind Speed Gust Speed Precip Events Conditions
12:15 AM 53.6 °F - 48.2 °F 82% 30.06 in 10.0 mi WNW 5.8 mph - N/A   Clear
12:35 AM 51.8 °F - 48.2 °F 88% 30.07 in 10.0 mi NW 5.8 mph - N/A   Clear
12:55 AM 51.8 °F - 48.2 °F 88% 30.07 in 10.0 mi NW 5.8 mph - N/A   Clear
1:15 AM 51.8 °F - 46.4 °F 82% 30.08 in 10.0 mi NNW 6.9 mph - N/A   Clear
1:35 AM 51.8 °F - 44.6 °F 76% 30.09 in 10.0 mi NNW 8.1 mph - N/A   Clear
1:55 AM 51.8 °F - 44.6 °F 76% 30.10 in 10.0 mi North 5.8 mph - N/A   Clear
2:15 AM 50.0 °F - 42.8 °F 76% 30.10 in 10.0 mi North 4.6 mph - N/A   Clear
2:35 AM 48.2 °F - 42.8 °F 82% 30.10 in 10.0 mi Calm Calm - N/A   Clear
2:55 AM 48.2 °F - 41.0 °F 76% 30.10 in 10.0 mi North 3.5 mph - N/A   Clear
3:15 AM 46.4 °F - 41.0 °F 81% 30.11 in 10.0 mi Calm Calm - N/A   Clear
3:35 AM 44.6 °F - 41.0 °F 87% 30.12 in 10.0 mi Calm Calm - N/A   Clear
3:55 AM 44.6 °F 42.2 °F 39.2 °F 81% 30.13 in 10.0 mi North 4.6 mph - N/A   Clear
4:15 AM 44.6 °F 41.4 °F 37.4 °F 76% 30.14 in 10.0 mi North 5.8 mph - N/A   Clear
4:35 AM 44.6 °F 43.1 °F 35.6 °F 71% 30.15 in 10.0 mi NNW 3.5 mph - N/A   Clear
4:55 AM 42.8 °F - 35.6 °F 76% 30.16 in 10.0 mi Calm Calm - N/A   Clear
5:15 AM 42.8 °F 40.1 °F 35.6 °F 76% 30.17 in 10.0 mi North 4.6 mph - N/A   Clear
5:35 AM 42.8 °F - 33.8 °F 70% 30.18 in 10.0 mi Calm Calm - N/A   Clear
5:55 AM 42.8 °F 38.6 °F 35.6 °F 76% 30.19 in 10.0 mi North 6.9 mph - N/A   Clear
6:15 AM 41.0 °F 36.4 °F 33.8 °F 76% 30.19 in 10.0 mi North 6.9 mph - N/A   Clear
6:35 AM 41.0 °F 38.0 °F 33.8 °F 76% 30.20 in 10.0 mi North 4.6 mph - N/A   Clear
6:55 AM 41.0 °F 37.1 °F 33.8 °F 76% 30.21 in 10.0 mi North 5.8 mph - N/A   Clear
7:15 AM 39.2 °F 35.9 °F 33.8 °F 81% 30.22 in 10.0 mi NNW 4.6 mph - N/A   Clear
7:35 AM 39.2 °F 35.0 °F 33.8 °F 81% 30.23 in 10.0 mi North 5.8 mph - N/A   Clear
7:55 AM 41.0 °F 35.8 °F 32.0 °F 70% 30.24 in 10.0 mi North 8.1 mph - N/A   Clear
8:15 AM 42.8 °F 39.3 °F 32.0 °F 66% 30.24 in 10.0 mi North 5.8 mph - N/A   Clear
8:35 AM 42.8 °F 39.3 °F 32.0 °F 66% 30.26 in 10.0 mi North 5.8 mph - N/A   Clear
8:55 AM 44.6 °F 40.7 °F 32.0 °F 61% 30.27 in 10.0 mi North 6.9 mph - N/A   Clear
9:15 AM 46.4 °F 45.2 °F 32.0 °F 57% 30.28 in 10.0 mi North 3.5 mph - N/A   Clear
9:35 AM 46.4 °F 45.2 °F 32.0 °F 57% 30.28 in 10.0 mi North 3.5 mph - N/A   Clear
9:55 AM 48.2 °F - 32.0 °F 54% 30.28 in 10.0 mi North 6.9 mph - N/A   Clear
10:15 AM 50.0 °F - 30.2 °F 47% 30.28 in 10.0 mi North 6.9 mph - N/A   Clear
10:35 AM 51.8 °F - 30.2 °F 44% 30.30 in 10.0 mi NNE 5.8 mph - N/A   Clear
10:55 AM 53.6 °F - 30.2 °F 41% 30.30 in 10.0 mi NNW 8.1 mph - N/A   Clear
11:15 AM 55.4 °F - 28.4 °F 36% 30.29 in 10.0 mi North 8.1 mph - N/A   Clear
11:35 AM 55.4 °F - 26.6 °F 33% 30.29 in 10.0 mi North 3.5 mph - N/A   Clear
11:55 AM 57.2 °F - 24.8 °F 29% 30.28 in 10.0 mi North 9.2 mph - N/A   Clear
12:15 PM 57.2 °F - 26.6 °F 31% 30.27 in 10.0 mi NNW 6.9 mph - N/A   Clear
12:35 PM 57.2 °F - 26.6 °F 31% 30.26 in 10.0 mi NNW 9.2 mph - N/A   Clear
12:55 PM 59.0 °F - 23.0 °F 25% 30.26 in 10.0 mi North 10.4 mph - N/A   Clear
1:15 PM 59.0 °F - 23.0 °F 25% 30.25 in 10.0 mi NNW 4.6 mph - N/A   Clear
1:35 PM 60.8 °F - 24.8 °F 25% 30.25 in 10.0 mi North 5.8 mph - N/A   Clear
1:55 PM 60.8 °F - 26.6 °F 27% 30.24 in 10.0 mi NNW 5.8 mph - N/A   Clear
2:15 PM 60.8 °F - 24.8 °F 25% 30.24 in 10.0 mi NNW 8.1 mph - N/A   Clear
2:35 PM 62.6 °F - 23.0 °F 22% 30.24 in 10.0 mi NNW 6.9 mph - N/A   Clear
2:55 PM 62.6 °F - 24.8 °F 24% 30.24 in 10.0 mi Calm Calm - N/A   Clear
3:15 PM 62.6 °F - 24.8 °F 24% 30.24 in 10.0 mi Calm Calm - N/A   Clear
3:35 PM 62.6 °F - 26.6 °F 26% 30.24 in 10.0 mi North 6.9 mph - N/A   Clear
3:55 PM 62.6 °F - 24.8 °F 24% 30.25 in 10.0 mi Calm Calm - N/A   Clear
4:35 PM 57.2 °F - 35.6 °F 44% 30.25 in 10.0 mi SE 6.9 mph - N/A   Clear
4:55 PM 57.2 °F - 35.6 °F 44% 30.25 in 10.0 mi ESE 6.9 mph - N/A   Clear
5:15 PM 55.4 °F - 37.4 °F 51% 30.25 in 10.0 mi Calm Calm - N/A   Clear
5:35 PM 53.6 °F - 37.4 °F 54% 30.26 in 10.0 mi Calm Calm - N/A   Clear
5:55 PM 51.8 °F - 39.2 °F 62% 30.27 in 10.0 mi Calm Calm - N/A   Clear
6:15 PM 48.2 °F - 39.2 °F 71% 30.27 in 10.0 mi Calm Calm - N/A   Clear
6:35 PM 46.4 °F - 39.2 °F 76% 30.27 in 10.0 mi Calm Calm - N/A   Clear
6:55 PM 44.6 °F - 39.2 °F 81% 30.28 in 10.0 mi Calm Calm - N/A   Clear
7:15 PM 44.6 °F - 39.2 °F 81% 30.29 in 10.0 mi Calm Calm - N/A   Clear
7:35 PM 42.8 °F - 39.2 °F 87% 30.30 in 10.0 mi Calm Calm - N/A   Clear
8:15 PM 42.8 °F - 39.2 °F 87% 30.31 in 10.0 mi Calm Calm - N/A   Clear
8:35 PM 41.0 °F - 39.2 °F 93% 30.32 in 10.0 mi Calm Calm - N/A   Clear
8:55 PM 39.2 °F - 39.2 °F 100% 30.32 in 10.0 mi Calm Calm - N/A   Clear
9:15 PM 39.2 °F - 39.2 °F 100% 30.33 in 8.0 mi Calm Calm - N/A   Clear
9:35 PM 39.2 °F - 37.4 °F 93% 30.34 in 7.0 mi Calm Calm - N/A   Clear
9:55 PM 39.2 °F - 37.4 °F 93% 30.35 in 7.0 mi Calm Calm - N/A   Clear
10:15 PM 37.4 °F - 37.4 °F 100% 30.35 in 7.0 mi Calm Calm - N/A   Clear
10:35 PM 37.4 °F - 37.4 °F 100% 30.35 in 5.0 mi Calm Calm - N/A   Clear
10:55 PM 37.4 °F - 37.4 °F 100% 30.35 in 5.0 mi Calm Calm - N/A   Clear
11:15 PM 37.4 °F - 37.4 °F 100% 30.35 in 5.0 mi Calm Calm - N/A   Clear
11:35 PM 37.4 °F - 35.6 °F 93% 30.35 in 5.0 mi Calm Calm - N/A   Clear
11:55 PM 35.6 °F - 35.6 °F 100% 30.35 in 4.0 mi Calm Calm - N/A   Clear